• In Belarus
  • List of Countries
  • For 7 days
  • Water Temperature
  • Satellite Maps
  • Weather Map
  • Weather Widgets
  • user-avatar
    Login

    Hourly Weather Sucre

    Today, 17 July, Tuesday

    Time Temperature Precipitation Wind Pressure Humidity
    00:00 +11°C° 0 mm 1 mps 541 mmHg 83%
    01:00 +11°C° 0 mm 1 mps 540 mmHg 85%
    02:00 +10°C° 0 mm 1 mps 540 mmHg 87%
    03:00 +10°C° 0 mm 1 mps 540 mmHg 86%
    04:00 +9°C° 0 mm 1 mps 539 mmHg 84%
    05:00 +9°C° 0 mm 1 mps 539 mmHg 83%
    06:00 +10°C° 0 mm 1 mps 540 mmHg 77%
    07:00 +11°C° 0 mm 1 mps 541 mmHg 70%
    08:00 +12°C° 0 mm 1 mps 541 mmHg 64%
    09:00 +14°C° 0 mm 2 mps 542 mmHg 54%
    10:00 +16°C° 0 mm 3 mps 543 mmHg 43%
    11:00 +18°C° 0 mm 3 mps 544 mmHg 32%
    12:00 +19°C° 0 mm 4 mps 544 mmHg 29%
    13:00 +20°C° 0 mm 4 mps 544 mmHg 27%
    14:00 +21°C° 0 mm 4 mps 544 mmHg 24%
    15:00 +21°C° 0 mm 4 mps 543 mmHg 25%
    16:00 +20°C° 0 mm 4 mps 543 mmHg 27%
    17:00 +20°C° 0 mm 5 mps 542 mmHg 28%
    18:00 +18°C° 0 mm 3 mps 542 mmHg 35%
    19:00 +16°C° 0 mm 2 mps 541 mmHg 42%
    20:00 +14°C° 0 mm 1 mps 541 mmHg 48%
    21:00 +14°C° 0 mm 1 mps 540 mmHg 52%
    22:00 +13°C° 0 mm 1 mps 540 mmHg 55%
    23:00 +12°C° 0 mm 1 mps 540 mmHg 59%

    Tomorrow, 18 July, Wednesday

    Time Temperature Precipitation Wind Pressure Humidity
    00:00 +12°C° 0 mm 1 mps 540 mmHg 59%
    01:00 +11°C° 0 mm 1 mps 539 mmHg 59%
    02:00 +11°C° 0 mm 1 mps 539 mmHg 60%
    03:00 +10°C° 0 mm 1 mps 539 mmHg 58%
    04:00 +10°C° 0 mm 1 mps 538 mmHg 57%
    05:00 +9°C° 0 mm 1 mps 538 mmHg 56%
    06:00 +10°C° 0 mm 1 mps 539 mmHg 51%
    07:00 +11°C° 0 mm 1 mps 540 mmHg 47%
    08:00 +12°C° 0 mm 1 mps 541 mmHg 42%
    09:00 +14°C° 0 mm 2 mps 541 mmHg 36%
    10:00 +17°C° 0 mm 2 mps 542 mmHg 29%
    11:00 +19°C° 0 mm 3 mps 543 mmHg 23%
    12:00 +20°C° 0 mm 4 mps 543 mmHg 22%
    13:00 +21°C° 0 mm 5 mps 543 mmHg 20%
    14:00 +22°C° 0 mm 5 mps 542 mmHg 19%
    15:00 +21°C° 0 mm 6 mps 542 mmHg 22%
    16:00 +21°C° 0 mm 6 mps 541 mmHg 24%
    17:00 +20°C° 0 mm 6 mps 541 mmHg 27%
    18:00 +17°C° 0 mm 5 mps 540 mmHg 35%
    19:00 +16°C° 0 mm 3 mps 539 mmHg 44%
    20:00 +14°C° 0 mm 2 mps 539 mmHg 52%
    21:00 +13°C° 0 mm 2 mps 539 mmHg 56%
    22:00 +13°C° 0 mm 2 mps 539 mmHg 60%
    23:00 +12°C° 0 mm 1 mps 539 mmHg 64%

    Day after tomorrow, 19 July, Thursday

    Time Temperature Precipitation Wind Pressure Humidity
    00:00 +11°C° 0 mm 1 mps 538 mmHg 66%
    01:00 +11°C° 0 mm 1 mps 538 mmHg 67%
    02:00 +11°C° 0 mm 1 mps 538 mmHg 69%
    03:00 +10°C° 0 mm 1 mps 537 mmHg 69%
    04:00 +10°C° 0 mm 1 mps 537 mmHg 69%
    05:00 +9°C° 0 mm 2 mps 537 mmHg 69%
    06:00 +9°C° 0 mm 2 mps 538 mmHg 65%
    07:00 +10°C° 0 mm 2 mps 538 mmHg 61%
    08:00 +12°C° 0 mm 2 mps 539 mmHg 56%
    09:00 +13°C° 0 mm 3 mps 540 mmHg 48%
    10:00 +15°C° 0 mm 4 mps 541 mmHg 40%
    11:00 +17°C° 0 mm 5 mps 542 mmHg 32%
    12:00 +19°C° 0 mm 5 mps 542 mmHg 30%
    13:00 +20°C° 0 mm 6 mps 542 mmHg 27%
    14:00 +21°C° 0 mm 6 mps 542 mmHg 25%
    15:00 +21°C° 0.1 mm 6 mps 541 mmHg 27%
    16:00 +20°C° 0.1 mm 5 mps 541 mmHg 28%
    17:00 +20°C° 0.1 mm 5 mps 540 mmHg 30%
    18:00 +18°C° 0.3 mm 4 mps 540 mmHg 37%
    19:00 +16°C° 0.3 mm 2 mps 540 mmHg 43%
    20:00 +15°C° 0.3 mm 1 mps 540 mmHg 50%
    21:00 +14°C° 0.2 mm 1 mps 540 mmHg 53%
    22:00 +14°C° 0.2 mm 1 mps 540 mmHg 55%
    23:00 +14°C° 0.2 mm 1 mps 541 mmHg 58%

    20 July, Friday

    Time Temperature Precipitation Wind Pressure Humidity
    00:00 +13°C° 0 mm 1 mps 540 mmHg 59%
    01:00 +12°C° 0 mm 1 mps 540 mmHg 61%
    02:00 +11°C° 0 mm 1 mps 539 mmHg 63%
    03:00 +11°C° 0 mm 1 mps 539 mmHg 64%
    04:00 +10°C° 0 mm 1 mps 538 mmHg 64%
    05:00 +10°C° 0 mm 1 mps 538 mmHg 65%
    06:00 +10°C° 0 mm 1 mps 539 mmHg 60%
    07:00 +11°C° 0 mm 1 mps 540 mmHg 55%
    08:00 +12°C° 0 mm 1 mps 541 mmHg 50%
    09:00 +14°C° 0 mm 2 mps 542 mmHg 41%
    10:00 +16°C° 0 mm 3 mps 543 mmHg 32%
    11:00 +19°C° 0 mm 4 mps 544 mmHg 23%
    12:00 +19°C° 0 mm 4 mps 544 mmHg 22%
    13:00 +20°C° 0 mm 4 mps 544 mmHg 20%
    14:00 +21°C° 0 mm 5 mps 544 mmHg 19%
    15:00 +21°C° 0 mm 5 mps 543 mmHg 21%
    16:00 +20°C° 0 mm 5 mps 543 mmHg 23%
    17:00 +20°C° 0 mm 5 mps 543 mmHg 25%
    18:00 +18°C° 0 mm 4 mps 542 mmHg 35%
    19:00 +16°C° 0 mm 3 mps 542 mmHg 46%
    20:00 +14°C° 0 mm 2 mps 542 mmHg 57%
    21:00 +13°C° 0.1 mm 2 mps 542 mmHg 63%
    22:00 +13°C° 0.1 mm 2 mps 542 mmHg 70%
    23:00 +12°C° 0.1 mm 1 mps 542 mmHg 77%

    21 July, Saturday

    Time Temperature Precipitation Wind Pressure Humidity
    00:00 +12°C° 0.1 mm 1 mps 541 mmHg 79%
    01:00 +12°C° 0.1 mm 1 mps 541 mmHg 81%
    02:00 +11°C° 0.1 mm 1 mps 541 mmHg 83%
    03:00 +10°C° 0.2 mm 2 mps 541 mmHg 83%
    04:00 +10°C° 0.2 mm 2 mps 541 mmHg 83%
    05:00 +10°C° 0.2 mm 2 mps 541 mmHg 84%
    06:00 +10°C° 0.5 mm 2 mps 541 mmHg 84%
    07:00 +10°C° 0.5 mm 2 mps 542 mmHg 84%
    08:00 +10°C° 0.5 mm 2 mps 542 mmHg 85%
    09:00 +10°C° 0.4 mm 2 mps 542 mmHg 79%
    10:00 +12°C° 0.4 mm 2 mps 543 mmHg 74%
    11:00 +13°C° 0.4 mm 2 mps 543 mmHg 68%
    12:00 +13°C° 0.7 mm 2 mps 542 mmHg 68%
    13:00 +12°C° 0.7 mm 2 mps 542 mmHg 67%
    14:00 +12°C° 0.7 mm 2 mps 541 mmHg 66%
    15:00 +12°C° 0.5 mm 2 mps 541 mmHg 66%
    16:00 +12°C° 0.5 mm 2 mps 541 mmHg 67%
    17:00 +12°C° 0.5 mm 2 mps 541 mmHg 67%
    18:00 +10°C° 0.5 mm 2 mps 541 mmHg 69%
    19:00 +10°C° 0.5 mm 2 mps 541 mmHg 72%
    20:00 +10°C° 0.5 mm 2 mps 541 mmHg 75%
    21:00 +9°C° 0.4 mm 2 mps 541 mmHg 75%
    22:00 +9°C° 0.4 mm 2 mps 541 mmHg 76%
    23:00 +9°C° 0.4 mm 2 mps 541 mmHg 76%

    22 July, Sunday

    Time Temperature Precipitation Wind Pressure Humidity
    00:00 +9°C° 0.2 mm 2 mps 541 mmHg 78%
    01:00 +9°C° 0.2 mm 2 mps 540 mmHg 80%
    02:00 +8°C° 0.2 mm 3 mps 540 mmHg 81%
    03:00 +8°C° 0.1 mm 3 mps 540 mmHg 81%
    04:00 +8°C° 0.1 mm 3 mps 540 mmHg 81%
    05:00 +8°C° 0.1 mm 3 mps 539 mmHg 81%
    06:00 +8°C° 0 mm 3 mps 540 mmHg 79%
    07:00 +8°C° 0 mm 3 mps 540 mmHg 78%
    08:00 +8°C° 0 mm 3 mps 541 mmHg 76%
    09:00 +10°C° 0 mm 3 mps 542 mmHg 65%
    10:00 +12°C° 0 mm 3 mps 542 mmHg 55%
    11:00 +14°C° 0 mm 4 mps 543 mmHg 44%
    12:00 +15°C° 0 mm 4 mps 543 mmHg 39%
    13:00 +18°C° 0 mm 4 mps 543 mmHg 34%
    14:00 +19°C° 0 mm 5 mps 543 mmHg 28%
    15:00 +19°C° 0 mm 5 mps 543 mmHg 28%
    16:00 +18°C° 0 mm 4 mps 542 mmHg 28%
    17:00 +18°C° 0 mm 4 mps 542 mmHg 28%
    18:00 +17°C° 0 mm 3 mps 542 mmHg 33%
    19:00 +14°C° 0 mm 3 mps 541 mmHg 38%
    20:00 +13°C° 0 mm 2 mps 541 mmHg 44%
    21:00 +13°C° 0 mm 2 mps 541 mmHg 47%
    22:00 +12°C° 0 mm 2 mps 541 mmHg 50%
    23:00 +11°C° 0 mm 1 mps 541 mmHg 53%
    Show more